Location: Augustenthal
(51.7167°N, 10.2833°E)
Time: 22:16:58
(UTC+00:00)

USA 215 - Pass Details

Date: 18 May 2021
Orbit: 1100 x 1107 km, 123.0° (Epoch: 22 June)

Event Time Altitude Azimuth Distance (km) Brightness Sun altitude
Rises 21:37:20 0° 84° (E) 3,919 6.0 -15.4°
Reaches altitude 10° 21:39:51 10° 80° (E) 2,961 5.4 -15.5°
Maximum altitude 21:46:13 57° 4° (N) 1,280 3.9 -15.9°
Drops below altitude 10° 21:52:35 10° 288° (WNW) 2,965 6.0 -16.3°
Sets 21:55:06 0° 285° (WNW) 3,923 6.7 -16.4°
